Location: Bednik
(45.3500°N, 16.3833°E)
Time: 04:29:35
(UTC+00:00)

Cosmos 1605 Rocket - Pass Details

Date: 08 August 2020
Orbit: 946 x 1005 km, 82.9° (Epoch: 23 September)

Event Time Altitude Azimuth Distance (km) Brightness Sun altitude
Exits shadow 20:21:07 23° 180° (S) 1,933 5.1 -19.0°
Maximum altitude 20:25:12 80° 96° (E) 972 3.9 -19.5°
Drops below altitude 10° 20:31:19 10° 10° (N) 2,679 6.8 -20.2°
Sets 20:33:48 0° 10° (N) 3,626 7.6 -20.4°
